Location: Chrząstowo
(52.0654°N, 17.1290°E)
Time: 06:44:32
(UTC+01:00)

Envisat - Visible Passes

Search period start: 11 December 2019 00:00
Search period end: 21 December 2019 00:00
Orbit: 764 x 766 km, 98.1° (Epoch: 10 December)

Date Brightness Start Highest point End Pass type
(mag) Time Alt. Az. Time Alt. Az. Time Alt. Az.
11 Dec 6.3 05:05:39 10° ENE 05:07:05 11° E 05:08:32 10° E visible
11 Dec 3.5 06:42:01 10° NNE 06:47:07 68° ESE 06:52:10 10° S visible
11 Dec 3.9 16:24:19 10° ESE 16:28:34 27° ENE 16:32:50 10° N visible
11 Dec 3.7 18:02:20 10° S 18:07:19 55° W 18:12:20 10° NNW visible
12 Dec 4.8 06:05:30 10° NNE 06:10:09 35° E 06:14:46 10° SSE visible
12 Dec 2.9 17:25:25 10° SSE 17:30:30 78° ENE 17:35:36 10° NNW visible
12 Dec 5.6 19:06:40 10° SW 19:10:07 18° W 19:13:37 10° NW visible
13 Dec 5.8 05:29:30 10° NE 05:32:59 18° E 05:36:28 10° SE visible
13 Dec 3.0 07:07:31 10° NNE 07:12:37 77° WNW 07:17:41 10° SSW visible
13 Dec 3.4 16:49:07 10° SE 16:53:51 41° ENE 16:58:37 10° N visible
13 Dec 4.6 18:28:21 10° SSW 18:32:58 34° W 18:37:37 10° NNW visible
14 Dec 3.8 06:30:46 10° NNE 06:35:48 55° E 06:40:47 10° S visible
14 Dec 3.3 17:50:57 10° S 17:56:00 67° WSW 18:01:06 10° NNW visible
14 Dec 6.2 19:34:38 10° W 19:36:01 11° W 19:37:26 10° WNW visible
15 Dec 5.1 05:54:22 10° NNE 05:58:46 29° E 06:03:09 10° SSE visible
15 Dec 2.9 17:14:13 10° SSE 17:19:14 64° ENE 17:24:17 10° N visible
15 Dec 5.4 18:54:48 10° SW 18:58:43 22° W 19:02:39 10° NW visible
16 Dec 6.0 05:18:40 10° NE 05:21:33 15° E 05:24:25 10° ESE visible
16 Dec 3.1 06:56:13 10° NNE 07:01:21 88° ESE 07:06:26 10° SSW visible
16 Dec 3.6 16:38:05 10° SE 16:42:38 35° ENE 16:47:13 10° N visible
16 Dec 4.2 18:16:48 10° SSW 18:21:36 42° W 18:26:27 10° NNW visible
17 Dec 4.2 06:19:33 10° NNE 06:24:28 45° E 06:29:20 10° S visible
17 Dec 3.1 17:39:37 10° SSE 17:44:42 82° WSW 17:49:50 10° NNW visible
17 Dec 6.0 19:22:01 10° WSW 19:24:34 14° W 19:27:07 10° NW visible
18 Dec 5.4 05:43:17 10° NE 05:47:23 24° E 05:51:27 10° SE visible
18 Dec 3.1 17:03:03 10° SE 17:07:59 53° ENE 17:12:57 10° N visible
18 Dec 5.1 18:43:03 10° SSW 18:47:19 27° W 18:51:36 10° NW visible
19 Dec 6.2 05:08:07 10° ENE 05:10:06 12° E 05:12:04 10° ESE visible
19 Dec 3.3 06:44:56 10° NNE 06:50:03 73° ESE 06:55:08 10° S visible
19 Dec 3.8 16:27:07 10° ESE 16:31:27 29° ENE 16:35:48 10° N visible
19 Dec 3.8 18:05:20 10° S 18:10:16 51° W 18:15:15 10° NNW visible
20 Dec 4.6 06:08:22 10° NNE 06:13:07 37° E 06:17:49 10° SSE visible
20 Dec 2.9 17:28:20 10° SSE 17:33:25 83° ENE 17:38:33 10° NNW visible
20 Dec 5.7 19:09:52 10° SW 19:13:07 17° W 19:16:23 10° NW visible
